DW3611 Weather Reports


time (UTC)temp
F
wind
direction
speed
knots
gust
knots
rain 1hr
in
rain 24hr
in
rain mn
in
humidity
%
barometer
mb
20260505125010 0 0.0 0.0 0.00 0.02 0.01 1009.4
20260505124526 0 0.0 0.0 0.00 0.02 0.01 1009.4
20260505124009 0 0.0 0.0 0.00 0.02 0.01 1009.5
20260505123511 0 0.0 0.0 0.00 0.02 0.01 1009.4
20260505123045 0 0.0 0.0 0.00 0.02 0.01 1009.5
20260505122511 0 0.0 0.0 0.00 0.02 0.01 1009.5
20260505122013 0 0.0 0.0 0.00 0.02 0.01 1009.4
20260505121534 0 0.0 0.0 0.00 0.02 0.01 1009.4
20260505121010 0 0.0 0.0 0.00 0.02 0.01 1009.5
20260505120037 0 0.0 0.0 0.00 0.02 0.01 1009.5
20260505115512 68 0.0 0.0 0.00 0.02 0.01 90 1009.4
20260505115006 68 2.6 10.4 0.00 0.02 0.01 90 1009.3
20260505114507 68 30 3.5 8.7 0.00 0.02 0.01 90 1009.2
20260505114002 68 360 2.6 5.2 0.00 0.02 0.01 90 1009.3
20260505113503 68 360 2.6 7.0 0.00 0.02 0.01 90 1009.4
20260505113010 68 34 1.7 7.0 0.00 0.02 0.01 90 1009.3
20260505112507 68 360 1.7 7.0 0.00 0.02 0.01 90 1009.3
20260505112008 68 35 1.7 5.2 0.00 0.02 0.01 90 1009.3
20260505111507 68 30 1.7 4.3 0.00 0.02 0.01 90 1009.3
20260505111003 68 37 2.6 4.3 0.00 0.02 0.01 90 1009.2
20260505110502 67 35 1.7 4.3 0.00 0.02 0.01 90 1009.2
20260505102004 67 25 1.7 7.0 0.00 0.02 0.01 89 1009.3
20260505101515 67 30 2.6 7.0 0.00 0.02 0.01 89 1009.3
20260505101007 67 32 0.9 5.2 0.00 0.02 0.01 89 1009.3
20260505100507 67 32 1.7 5.2 0.00 0.02 0.01 89 1009.2
20260505100003 67 28 0.9 7.8 0.00 0.02 0.01 89 1009.4
20260505095502 68 28 1.7 8.7 0.00 0.02 0.01 89 1009.3
20260505095002 68 29 0.9 8.7 0.00 0.02 0.01 89 1009.4
20260505094504 67 32 0.9 7.0 0.00 0.02 0.01 89 1009.5
20260505094007 67 24 1.7 7.0 0.00 0.02 0.01 89 1009.6
20260505093005 67 23 0.9 5.2 0.00 0.02 0.01 89 1009.7
20260505092503 67 33 1.7 5.2 0.00 0.02 0.01 88 1009.8
20260505092007 67 34 0.9 5.2 0.00 0.02 0.01 88 1009.8
20260505091506 67 34 1.7 5.2 0.00 0.02 0.01 88 1009.8
20260505091009 67 36 1.7 5.2 0.00 0.02 0.01 88 1009.7
20260505090503 67 26 0.9 7.0 0.00 0.02 0.01 88 1009.8
20260505090043 67 360 0.0 7.0 0.00 0.02 0.01 88 1009.8
20260505085507 67 32 1.7 4.3 0.00 0.02 0.01 88 1009.9
20260505085009 67 26 1.7 5.2 0.01 0.02 0.01 88 1010.0
20260505084526 67 31 1.7 5.2 0.01 0.02 0.01 88 1010.0
20260505084012 67 360 0.9 5.2 0.01 0.02 0.01 88 1010.0
20260505083502 67 36 1.7 7.0 0.01 0.02 0.01 88 1010.0
20260505083010 67 34 2.6 7.0 0.01 0.02 0.01 88 1010.1
20260505082504 67 28 2.6 7.0 0.01 0.02 0.01 88 1010.1
20260505082006 67 26 1.7 5.2 0.01 0.02 0.01 87 1010.2
20260505081509 67 34 1.7 5.2 0.01 0.02 0.01 87 1010.2
20260505081003 67 29 1.7 5.2 0.01 0.02 0.01 87 1010.2
20260505080505 67 26 1.7 5.2 0.01 0.02 0.01 87 1010.4
20260505080008 67 360 0.0 7.8 0.01 0.02 0.01 87 1010.3
20260505075503 67 35 1.7 7.8 0.01 0.02 0.01 87 1010.3
20260505075007 67 31 0.9 5.2 0.00 0.01 0.00 87 1010.2
20260505074519 68 27 0.9 5.2 0.00 0.01 0.00 86 1010.2
20260505074008 68 22 0.0 5.2 0.00 0.01 0.00 86 1010.3
20260505073507 68 360 1.7 7.0 0.00 0.01 0.00 86 1010.2
20260505073022 68 27 1.7 7.0 0.00 0.01 0.00 86 1010.3
20260505072507 68 31 1.7 5.2 0.00 0.01 0.00 86 1010.4
20260505072015 68 28 0.9 7.0 0.00 0.01 0.00 85 1010.5
20260505071505 68 26 2.6 7.0 0.00 0.01 0.00 85 1010.5
20260505071005 68 34 1.7 7.0 0.00 0.01 0.00 85 1010.6
20260505070503 68 28 0.9 7.0 0.00 0.01 0.00 85 1010.6
20260505070016 68 30 1.7 7.0 0.00 0.01 0.00 85 1010.6
20260505065503 68 33 1.7 7.8 0.00 0.01 0.00 85 1010.7
20260505065004 68 30 2.6 8.7 0.00 0.01 0.00 85 1010.7
20260505064512 68 28 2.6 8.7 0.00 0.01 0.00 84 1010.8
20260505064012 68 29 1.7 7.0 0.00 0.01 0.00 84 1010.8
20260505063515 68 30 1.7 9.6 0.00 0.01 0.00 84 1010.8
20260505063017 68 26 3.5 9.6 0.00 0.01 0.00 84 1010.7
20260505062508 68 360 1.7 5.2 0.00 0.01 0.00 84 1010.7
20260505062012 68 23 1.7 7.0 0.00 0.01 0.00 84 1010.8
20260505061524 69 23 2.6 7.0 0.00 0.01 0.00 83 1010.9
20260505061009 69 32 1.7 7.0 0.00 0.01 0.00 83 1011.0
20260505060504 69 360 1.7 7.0 0.00 0.01 0.00 83 1011.0
20260505060013 69 360 2.6 5.2 0.00 0.01 0.00 83 1010.9
20260505055505 69 360 0.9 7.0 0.00 0.01 0.00 83 1010.9
20260505055007 69 360 2.6 9.6 0.00 0.01 0.00 83 1011.0
20260505054511 69 360 1.7 9.6 0.00 0.01 0.00 83 1011.1
20260505054009 69 360 2.6 10.4 0.00 0.01 0.00 83 1011.1
20260505053508 69 360 2.6 10.4 0.00 0.01 0.00 83 1011.2
20260505053021 69 32 4.3 9.6 0.00 0.01 0.00 83 1011.3
20260505052513 69 360 2.6 7.8 0.00 0.01 0.00 82 1011.3
20260505052007 69 30 2.6 9.6 0.00 0.01 0.00 82 1011.2
20260505051522 69 31 2.6 9.6 0.00 0.01 0.00 82 1011.1
20260505051007 69 32 3.5 9.6 0.00 0.01 0.00 82 1011.2
20260505050511 69 32 2.6 12.2 0.00 0.01 0.00 82 1011.3
20260505041536 68 24 0.9 8.7 0.00 0.01 0.01 81 1011.4
20260505041009 68 20 1.7 8.7 0.00 0.01 0.01 81 1011.5
20260505040512 68 28 1.7 7.0 0.00 0.01 0.01 81 1011.6
20260505040020 68 26 2.6 7.0 0.00 0.01 0.01 81 1011.7
20260505035503 68 31 1.7 7.0 0.00 0.01 0.01 81 1011.7
20260505035002 68 26 0.9 5.2 0.00 0.01 0.01 81 1011.6
20260505034511 68 28 0.9 5.2 0.00 0.01 0.01 80 1011.6
20260505034006 68 36 1.7 7.8 0.00 0.01 0.01 80 1011.5
20260505033507 68 29 1.7 8.7 0.00 0.01 0.01 80 1011.3
20260505033012 68 34 1.7 8.7 0.00 0.01 0.01 80 1011.5
20260505032504 68 33 2.6 7.8 0.00 0.01 0.01 80 1011.6
20260505032008 68 360 1.7 7.0 0.00 0.01 0.01 80 1011.6
20260505031518 69 360 0.9 5.2 0.00 0.01 0.01 79 1011.6
20260505031010 69 30 1.7 5.2 0.00 0.01 0.01 79 1011.9
20260505030507 69 32 1.7 4.3 0.00 0.01 0.01 79 1011.9
20260505030021 69 29 0.9 4.3 0.00 0.01 0.01 79 1011.7
20260505025507 69 31 0.9 4.3 0.00 0.01 0.01 78 1011.6
20260505025012 69 26 0.0 3.5 0.00 0.01 0.01 78 1011.7
20260505024526 69 32 0.0 3.5 0.00 0.01 0.01 78 1011.7
20260505024003 69 25 0.9 5.2 0.00 0.01 0.01 78 1011.4
20260505023503 69 30 0.0 5.2 0.00 0.01 0.01 77 1011.5
20260505023007 69 24 0.9 4.3 0.00 0.01 0.01 76 1011.6
20260505022503 70 32 1.7 5.2 0.00 0.01 0.01 76 1011.4
20260505022003 70 30 0.9 7.8 0.00 0.01 0.01 76 1011.3
20260505021514 70 28 0.9 7.8 0.00 0.01 0.01 76 1011.3
20260505021007 70 33 1.7 4.3 0.00 0.01 0.01 75 1011.3
20260505020507 70 25 0.9 4.3 0.00 0.01 0.01 75 1011.2
20260505020021 70 20 1.7 4.3 0.00 0.01 0.01 74 1011.2
20260505015512 70 31 1.7 7.8 0.00 0.01 0.01 74 1011.2
20260505015009 71 27 3.5 8.7 0.00 0.01 0.01 74 1011.1
20260505014519 71 27 0.9 8.7 0.00 0.01 0.01 73 1011.2
20260505014009 71 30 2.6 7.8 0.00 0.01 0.01 73 1011.2
20260505013507 71 22 2.6 7.8 0.00 0.01 0.01 73 1011.1
20260505013025 71 22 0.9 4.3 0.00 0.01 0.01 72 1011.1
20260505012003 72 29 2.6 7.8 0.00 0.01 0.01 71 1011.0
20260505011511 72 19 0.9 11.3 0.00 0.01 0.01 71 1011.0
20260505011004 72 29 5.2 11.3 0.00 0.01 0.01 70 1010.7
20260505010507 72 29 2.6 8.7 0.00 0.01 0.01 70 1010.7
20260505010015 72 28 1.7 8.7 0.00 0.01 0.01 70 1010.9
20260505005508 73 28 1.7 0.0 0.00 0.01 0.01 69 1010.9
20260505005010 0 0.0 0.0 0.00 0.01 0.01 1010.9
20260505004535 0 0.0 0.0 0.00 0.01 0.01 1010.9
20260505004011 0 0.0 0.0 0.00 0.01 0.01 1010.8
20260505003512 0 0.0 0.0 0.00 0.01 0.01 1011.0
20260505003030 0 0.0 0.0 0.00 0.01 0.01 1011.1
20260505002513 0 0.0 0.0 0.00 0.01 0.01 1011.1
20260505002013 0 0.0 0.0 0.00 0.01 0.01 1011.0
20260505001530 0 0.0 0.0 0.00 0.01 0.01 1011.0
20260505001011 0 0.0 0.0 0.00 0.01 0.01 1011.0
20260505000514 0 0.0 0.0 0.00 0.01 0.01 1011.1
20260505000034 0 0.0 0.0 0.00 0.01 0.01 1011.2
20260504235512 0 0.0 0.0 0.00 0.01 0.01 1011.2
20260504235012 0 0.0 0.0 0.00 0.01 0.01 1011.1
20260504234526 0 0.0 0.0 0.00 0.01 0.01 1011.1
20260504234010 0 0.0 0.0 0.00 0.01 0.01 1011.1
20260504233512 0 0.0 0.0 0.00 0.01 0.01 1011.2
20260504233032 0 0.0 0.0 0.00 0.01 0.01 1011.2
20260504232513 0 0.0 0.0 0.00 0.01 0.01 1011.5
20260504232012 0 0.0 0.0 0.00 0.01 0.01 1011.5
20260504231531 0 0.0 0.0 0.00 0.01 0.01 1011.6
20260504231013 0 0.0 0.0 0.00 0.01 0.01 1011.6
20260504230512 76 0.0 0.0 0.00 0.01 0.01 62 1011.5
20260504230028 76 22 3.5 10.4 0.00 0.01 0.01 62 1011.5
20260504225510 76 24 7.0 0.0 0.00 0.01 0.01 62 1011.8
20260504225011 0 0.0 0.0 0.00 0.01 0.01 1011.8
20260504224530 0 0.0 0.0 0.00 0.01 0.01 1011.8
20260504224012 0 0.0 0.0 0.00 0.01 0.01 1011.7
20260504223513 0 0.0 0.0 0.00 0.01 0.01 1011.8
20260504223027 0 0.0 0.0 0.00 0.01 0.01 1011.9
20260504222518 0 0.0 0.0 0.00 0.01 0.01 1012.0
20260504222016 0 0.0 0.0 0.00 0.01 0.01 1011.8
20260504221534 0 0.0 0.0 0.00 0.01 0.01 1011.9
20260504221013 0 0.0 0.0 0.00 0.01 0.01 1011.9
20260504220513 0 0.0 0.0 0.00 0.01 0.01 1012.1
20260504220029 0 0.0 0.0 0.00 0.01 0.01 1012.2
20260504215520 0 0.0 0.0 0.00 0.01 0.01 1012.1
20260504215014 0 0.0 0.0 0.00 0.01 0.01 1012.1
20260504214529 0 0.0 0.0 0.00 0.01 0.01 1012.2
20260504214011 0 0.0 0.0 0.00 0.01 0.01 1012.3
20260504213513 0 0.0 0.0 0.00 0.01 0.01 1012.3
20260504213052 0 0.0 0.0 0.00 0.01 0.01 1012.4
20260504212511 0 0.0 0.0 0.00 0.01 0.01 1012.4
20260504212014 0 0.0 0.0 0.00 0.01 0.01 1012.5
20260504211526 0 0.0 0.0 0.00 0.01 0.01 1012.6
20260504211016 0 0.0 0.0 0.00 0.01 0.01 1012.5
20260504210513 0 0.0 0.0 0.00 0.01 0.01 1012.7
20260504210030 0 0.0 0.0 0.00 0.01 0.01 1012.7
20260504205513 0 0.0 0.0 0.00 0.01 0.01 1012.7
20260504205012 0 0.0 0.0 0.00 0.01 0.01 1012.9
20260504204530 0 0.0 0.0 0.00 0.01 0.01 1012.9
20260504204014 0 0.0 0.0 0.00 0.01 0.01 1012.9
20260504203513 0 0.0 0.0 0.00 0.01 0.01 1013.0
20260504203034 0 0.0 0.0 0.00 0.01 0.01 1013.1
20260504202513 0 0.0 0.0 0.00 0.01 0.01 1013.3
20260504202012 0 0.0 0.0 0.00 0.01 0.01 1013.4
20260504201533 0 0.0 0.0 0.00 0.01 0.01 1013.5
20260504201017 0 0.0 0.0 0.00 0.01 0.01 1013.6
20260504200538 0 0.0 0.0 0.00 0.01 0.01 1013.5
20260504200029 0 0.0 0.0 0.00 0.01 0.01 1013.6
20260504195512 0 0.0 0.0 0.00 0.01 0.01 1013.6
20260504195013 0 0.0 0.0 0.00 0.01 0.01 1013.6
20260504194531 0 0.0 0.0 0.00 0.01 0.01 1013.7
20260504194013 0 0.0 0.0 0.00 0.01 0.01 1013.6
20260504193037 0 0.0 0.0 0.00 0.01 0.01 1013.9
20260504192513 0 0.0 0.0 0.00 0.01 0.01 1013.9
20260504191532 0 0.0 0.0 0.00 0.01 0.01 1014.1
20260504191017 0 0.0 0.0 0.00 0.01 0.01 1014.0
20260504190514 0 0.0 0.0 0.00 0.01 0.01 1014.3
20260504190031 0 0.0 0.0 0.00 0.01 0.01 1014.4
20260504185519 0 0.0 0.0 0.00 0.01 0.01 1014.4
20260504185017 0 0.0 0.0 0.00 0.01 0.01 1014.5
20260504184532 0 0.0 0.0 0.00 0.01 0.01 1014.5
20260504184013 0 0.0 0.0 0.00 0.01 0.01 1014.6
20260504183514 0 0.0 0.0 0.00 0.01 0.01 1014.6
20260504183031 0 0.0 0.0 0.00 0.01 0.01 1014.6
20260504182514 0 0.0 0.0 0.00 0.01 0.01 1014.8
20260504182015 0 0.0 0.0 0.00 0.01 0.01 1014.9
20260504181531 0 0.0 0.0 0.00 0.01 0.01 1015.0
20260504181011 0 0.0 0.0 0.00 0.01 0.01 1015.2
20260504180512 0 0.0 0.0 0.00 0.01 0.01 1015.3
20260504180031 0 0.0 0.0 0.00 0.01 0.01 1015.3
20260504175513 0 0.0 0.0 0.00 0.01 0.01 1015.4
20260504175016 0 0.0 0.0 0.00 0.01 0.01 1015.4
20260504174530 0 0.0 0.0 0.00 0.01 0.01 1015.5
20260504174014 0 0.0 0.0 0.00 0.01 0.01 1015.5
20260504173513 0 0.0 0.0 0.00 0.01 0.01 1015.5
20260504173042 0 0.0 0.0 0.00 0.01 0.01 1015.6
20260504172513 0 0.0 0.0 0.00 0.01 0.01 1015.7
20260504172014 0 0.0 0.0 0.00 0.01 0.01 1015.6
20260504171532 0 0.0 0.0 0.00 0.01 0.01 1015.8
20260504171013 0 0.0 0.0 0.00 0.01 0.01 1015.9
20260504170513 0 0.0 0.0 0.00 0.01 0.01 1015.8
20260504141014 0 0.0 0.0 0.00 0.00 0.00 1016.9
20260504140506 0 0.0 0.0 0.00 0.00 0.00 1017.0